sat.trackr.live / text

‹ back to catalog

STARLINK-35668

NORAD 66401 · 2025-257X

PAYLOAD ACTIVE UNKNOWN

§ Identity

Operator
Country
US
Launch date
2025-11-09
Launch site
AFETR
Launch vehicle
Mass (kg)
RCS (m²)

Purposes: comms

External: N2YO · Heavens-Above · Gunter

§ Orbital elements

Epoch: 2026-09-20T12:28:50.478816Z

Period
93.85 min
Inclination
53.1589°
Eccentricity
0.0000840
Mean motion
15.34403205 rev/d
Perigee alt
462.1 km
Apogee alt
463.3 km
Semi-major
6,840.8 km
B*
8.3168e-4
RAAN
27.7440°
Arg perigee
99.2673°
Mean anomaly
260.8425°
Rev number
4,962

§ Raw data

STARLINK-356681 66401U 25257X   26263.52002869  .00027831  00000+0  83168-3 0  99982 66401  53.1589  27.7440 0000840  99.2673 260.8425 15.34403205 49627

JSON: /api/v1/satellites/66401 · /tle

For live sub-satellite position, see the globe view (requires WebGL).

§ Visibility from observer

Set your observer location to see the next 7 days of passes ≥ 10°. The values pass through the URL so the page stays shareable.

No JS? Fill the form by hand. The geolocation button needs JavaScript.